Location: Milano
(45.4670°N, 9.2000°E)
Time: 04:51:49
(UTC+02:00)

X-37B - Pass Details

Date: 06 August 2021
Orbit: 381 x 393 km, 45.0° (Epoch: 29 August)

Event Time Altitude Azimuth Distance (km) Brightness Sun altitude
Exits shadow 05:29:08 - 267° (W) 1,580 3.1 -7.6°
Reaches altitude 10° 05:29:35 10° 267° (W) 1,397 2.9 -7.5°
Maximum altitude 05:32:44 85° 179° (S) 387 0.5 -7.0°
Drops below altitude 10° 05:35:52 10° 91° (E) 1,398 4.4 -6.6°
Sets 05:37:56 0° 91° (E) 2,252 5.6 -6.3°
